Location: T�bingen+AIT
(48.5342°N, 9.0700°E)
Time: 22:30:28
(UTC+01:00)

Cosmos 1340 Rocket - Pass Details

Date: 14 September 2017
Orbit: 529 x 561 km, 81.2° (Epoch: 18 November)

Event Time Altitude Azimuth Distance (km) Brightness Sun altitude
Rises 20:10:24 0° 358° (N) 2,722 6.6 -6.1°
Reaches altitude 10° 20:12:51 10° 11° (N) 1,830 5.5 -6.5°
Maximum altitude 20:16:16 26° 69° (ENE) 1,107 3.9 -7.0°
Drops below altitude 10° 20:19:42 10° 127° (SE) 1,832 4.9 -7.6°
Enters shadow 20:20:30 - 133° (SE) 2,113 5.3 -7.7°
